Location: ?????
(41.3661°N, 20.6483°E)
Time: 01:13:30
(UTC+00:00)

Daily predictions for brighter satellites

Satellite Brightness Start Highest point End
(mag) Time Altitude Azimuth Time Altitude Azimuth Time Altitude Azimuth
NOSS 3-2 (C) 4.4 02:12:37 60° ENE 02:12:37 60° ENE 02:20:50 10° SE
CENTAUR R/B 3.4 02:14:21 62° NE 02:14:41 63° NE 02:23:28 10° SE
ATLAS 2AS CENTAUR R/B 3.5 02:27:56 40° SSE 02:30:35 55° ESE 02:38:15 10° NE
NOSS 3-2 (A) 4.2 02:41:09 63° S 02:41:09 63° S 02:48:29 10° SSE
Atlas Centaur 2 3.9 02:44:04 26° S 02:44:04 26° S 02:48:55 10° ESE
BREEZE-M DEB (TANK) 4.2 02:45:10 71° WNW 02:45:55 75° NNW 03:12:21 10° ENE
Lacrosse 5 2.9 02:52:48 43° ENE 02:52:48 43° ENE 02:56:15 10° NE
ADEOS 4.4 02:50:21 10° NNE 02:55:24 47° E 03:00:25 10° S
ATLAS CENTAUR R/B 4.1 02:55:55 12° NE 02:55:55 12° NE 02:57:17 10° ENE
USA 238 DEB 4.0 02:58:22 58° SSW 02:58:22 58° SSW 03:04:54 10° SSE
USA 238 4.0 02:58:25 59° SSW 02:58:25 59° SSW 03:05:01 10° SSE
Cosmos 2263 Rocket 3.4 03:01:26 31° N 03:01:26 31° N 03:04:23 10° NNE
SJ 16-02 3.1 03:08:47 24° NNE 03:08:47 24° NNE 03:10:36 10° NNE
FENGYUN 3A 3.5 03:14:09 10° NNE 03:19:36 89° WNW 03:24:59 10° SSW
Cosmos 1709 Rocket 3.9 03:13:58 10° SSW 03:20:20 76° W 03:26:45 10° N
Cosmos 2181 Rocket 4.2 03:14:37 10° N 03:20:49 68° E 03:26:53 10° SSE
Cosmos 1408 Rocket 4.4 03:19:09 10° SSE 03:23:28 50° E 03:27:47 10° NNE
COSMO-SKYMED 1 3.6 03:23:21 10° SE 03:27:27 44° ENE 03:30:47 15° N
CZ-4C R/B 2.1 03:25:49 37° SSW 03:27:46 73° ESE 03:33:27 10° NE
Cosmos 1603 3.9 03:30:28 50° SW 03:30:28 50° SW 03:35:23 10° S
Meteor 2-3 Rocket 3.6 03:24:19 10° S 03:30:01 87° W 03:35:51 10° N
BREEZE-M DEB (TANK) 4.1 03:30:34 36° NW 03:33:19 58° NNE 03:36:47 10° E
ATLAS 3B R/B 3.3 03:30:35 21° NNW 03:35:21 55° NE 03:42:24 10° SE
Cosmos 1943 3.3 03:36:00 52° W 03:36:18 53° WSW 03:41:48 10° S
Lacrosse 4 Rocket 1.3 03:38:11 75° WSW 03:38:12 75° WSW 03:42:35 10° SSE
CZ-4B R/B 3.6 03:39:04 10° NNE 03:43:31 60° E 03:47:48 10° S
FALCON 9 DEB 4.5 03:46:08 28° NNE 03:46:08 28° NNE 03:47:57 10° NE
Cosmos 1689 Rocket 3.4 03:43:00 10° SE 03:45:41 38° ENE 03:46:15 34° NE
SAR-Lupe-4 3.7 03:43:35 10° SSE 03:47:07 71° ENE 03:48:19 39° N
Cosmos 2074 Rocket 4.2 03:44:10 10° S 03:50:19 72° E 03:56:31 10° NNE
Genesis I 3.0 03:49:54 39° SSW 03:51:13 86° ESE 03:55:04 10° NE
Cosmos 1461 4.2 03:52:16 28° SW 03:52:16 28° SW 03:55:17 10° S
Cosmos 990 Rocket 3.9 03:47:58 10° SSW 03:53:12 80° WNW 03:58:29 10° NNE
ALOS 3.4 03:50:46 10° N 03:53:16 27° NNW 03:53:16 27° NNW
deb Chang Zheng 4 3.5 03:52:08 10° N 03:56:24 59° WNW 04:00:40 10° SSW
Cosmos 923 Rocket 4.0 03:53:37 27° NNW 03:56:28 65° WSW 04:01:43 10° S
METEOR-M 4.2 03:54:43 10° N 03:59:52 50° WNW 04:04:59 10° SW
NOSS 3-4 (A) 4.0 04:00:50 31° WNW 04:02:15 35° NW 04:07:59 10° NNE
CZ-4B R/B 3.6 03:59:28 10° SSW 03:59:53 13° SSW 03:59:53 13° SSW
NOSS 3-4 (C) 4.0 04:00:54 31° WNW 04:02:21 35° NW 04:08:06 10° NNE
SAR-Lupe-1 3.9 04:00:34 10° S 04:04:07 72° WSW 04:05:49 29° NNW
CENTAUR R/B 3.8 04:01:35 26° WNW 04:05:16 37° WSW 04:13:08 10° S
USA-17 4.4 04:02:17 12° SW 04:05:59 84° NW 04:09:13 10° NNE
Cosmos 405 Rocket 3.4 04:02:24 10° S 04:05:59 52° E 04:09:38 10° NNE
Milstar 3 Cent rocket 4.5 04:00:16 14° WSW 04:06:18 38° S 04:19:30 10° ESE
Cosmos 2184 Rocket 4.0 04:01:25 10° S 04:07:43 87° W 04:14:07 10° N
Meteor 2-17 Rocket 4.5 04:06:15 10° SSW 04:12:08 53° WNW 04:18:05 10° N
Cosmos 158 Rocket 4.2 04:10:38 25° NW 04:13:05 44° WSW 04:17:50 10° S
Cosmos 1812 3.4 04:09:33 10° N 04:13:20 55° E 04:17:05 10° SSE
Cosmos 2228 Rocket 3.7 04:09:05 10° N 04:13:27 57° E 04:17:46 10° SSE
USA 234 4.0 04:07:26 10° NE 04:13:50 55° SE 04:20:12 10° SSW
Cosmos 1515 Rocket 3.5 04:09:56 10° NNW 04:14:21 64° W 04:18:45 10° S
PSLV R/B 3.8 04:10:46 10° S 04:14:55 75° WSW 04:19:02 10° NNW
SKYMED 2 3.7 04:11:16 10° S 04:15:30 53° W 04:19:24 12° NNW
SL-4 R/B 3.7 04:15:03 16° NNW 04:15:58 17° N 04:18:33 10° NE
Cosmos 1844 Rocket 2.6 04:11:28 10° SSW 04:17:06 74° WNW 04:22:48 10° NNE
Cosmos 1151 Rocket 3.8 04:17:01 28° W 04:17:15 28° W 04:20:54 10° SSW
GPS 2-04 Rocket1 3.8 04:16:28 20° WSW 04:18:33 33° S 04:22:01 10° ESE
Cosmos 1782 3.2 04:16:34 22° NW 04:18:47 41° W 04:22:34 10° SSW
ERS-2 3.5 04:17:05 10° SSW 04:19:17 21° WSW 04:19:17 21° WSW
ATLAS 2AS CENTAUR R/B 3.4 04:15:31 14° WSW 04:21:52 41° NW 04:29:13 10° NNE
COSMOS 2455 3.4 04:17:44 10° SSW 04:23:40 64° ESE 04:29:38 10° NE
SJ-12 4.4 04:20:25 10° N 04:24:08 35° WNW 04:27:48 10° SW
Cosmos 1680 Rocket 3.8 04:20:02 14° NNW 04:24:23 48° WSW 04:29:27 10° S
FALCON 9 DEB 4.3 04:24:40 23° NNW 04:24:55 23° NNW 04:27:35 10° NNE
Cosmos 1844 3.6 04:25:16 10° SSW 04:30:47 71° WNW 04:36:23 10° NNE
RESURS DK-1 3.0 04:27:45 10° SW 04:31:33 34° WNW 04:35:24 10° N
Atlas Centaur 2 3.7 04:27:16 10° WSW 04:32:31 27° S 04:36:51 10° SE
NOAA 6 4.4 04:28:06 10° NNE 04:33:13 68° ESE 04:38:18 10° S
Lacrosse 5 2.9 04:32:03 19° WNW 04:34:34 27° NNW 04:38:55 10° NNE
ATLAS CENTAUR R/B 1.1 04:32:07 15° NW 04:35:12 83° WSW 04:39:12 10° SSE
Cosmos 1500 Rocket 3.6 04:31:02 10° SSW 04:35:14 51° W 04:39:27 10° N
Cosmos 372 Rocket 4.1 04:31:20 10° SSW 04:36:24 78° ESE 04:41:31 10° NNE
CZ-4B DEB 4.4 04:31:27 10° NNE 04:36:56 77° ESE 04:42:24 10° S
Meteor PRIRODA 4.3 04:33:41 10° N 04:37:04 33° WNW 04:40:26 10° SW
Meteor 2-6 Rocket 4.1 04:33:52 10° NNW 04:39:12 62° W 04:44:34 10° S
H-2A R/B 2.9 04:37:16 10° N 04:41:05 52° WNW 04:44:50 10° SSW
OAO 2 Rocket 4.4 04:37:06 11° WSW 04:41:31 37° S 04:46:14 10° ESE
Cosmos 1437 Rocket 2.9 04:39:21 10° N 04:43:08 74° E 04:46:53 10° SSE
Cosmos 2263 Rocket 3.9 04:43:11 12° NW 04:43:45 12° NW 04:45:59 10° NNW
Okean O Rocket 2.8 04:40:36 10° NNE 04:44:53 47° E 04:49:10 10° S
SJ 16-02 3.2 04:45:52 12° NW 04:45:52 12° NW 04:47:11 10° NNW
Gbstr 26 Del rocket 2.8 04:43:33 16° WNW 04:46:30 65° SW 04:50:32 10° SE
SMAP 3.8 04:43:01 10° NNE 04:47:38 59° E 04:52:13 10° S
ATLAS 5 CENTAUR R/B 2.9 04:44:08 10° S 04:47:52 41° ESE 04:51:58 10° NE
Nadezhda 3 Rocket 4.0 04:45:23 10° NNW 04:51:39 69° W 04:57:48 10° S
Cosmos 1898 Rocket 4.3 04:47:57 10° WSW 04:52:32 29° WNW 04:57:10 10° N
CZ-2C R/B 3.4 04:47:50 10° SSE 04:53:12 56° ENE 04:58:28 10° N
Sich 1 3.0 04:51:38 10° S 04:56:04 84° W 05:00:31 10° N
Cosmos 1743 Rocket 4.4 04:55:27 10° SW 04:59:18 28° WNW 05:03:11 10° NNW
Envisat 3.0 04:55:17 10° N 05:00:18 62° WNW 05:05:18 10° SSW
AQUARIUS 4.4 04:57:30 10° NNE 05:02:00 75° ESE 05:06:29 10° S
H-2A R/B 2.3 04:59:54 10° N 05:03:40 55° WNW 05:07:24 10° SSW
COSMO-SKYMED 1 4.2 05:01:06 10° SW 05:03:49 16° W 05:06:34 10° NW
Cosmos 2082 Rocket 4.1 05:02:14 10° N 05:06:52 25° NE 05:11:31 10° ESE
CZ-4B R/B 3.3 05:02:59 10° NNE 05:08:22 84° ESE 05:13:49 10° SSW
Cosmos 1937 Rocket 4.3 05:05:16 10° WSW 05:09:38 27° WNW 05:14:03 10° N
Meteor 2-12 Rocket 4.5 05:04:57 10° SSW 05:11:05 73° W 05:17:15 10° N
MOS 1 Rocket 4.0 05:09:41 10° SSW 05:14:02 35° W 05:18:40 10° NNW
Cosmos 2154 Rocket 4.4 05:09:14 10° SW 05:15:01 40° WNW 05:20:52 10° N
Cosmos 1833 Rocket 3.6 05:11:54 10° NNW 05:17:23 49° ENE 05:22:47 10° SE
